Iron Mountain, MI

2:47 AM CDT on April 20, 2018 (GMT -0500)
Ford

Weather History for KIMT - November, 2012

Change the Weather History Date:

Tuesday, November 27, 2012

  Actual Average Record
Temperature  
Mean Temperature 20 °F -  
Max Temperature 30 °F 35 °F 55 °F (1998)
Min Temperature 10 °F 18 °F -6 °F (2014)
Degree Days  
Heating Degree Days 45    
Moisture  
Dew Point 12 °F    
Average Humidity 68    
Maximum Humidity 84    
Minimum Humidity 46    
Precipitation  
Precipitation 0.00 in - - ()
Sea Level Pressure  
Sea Level Pressure 30.18 in    
Wind  
Wind Speed 4 mph (SW)    
Max Wind Speed 10 mph    
Max Gust Speed 20 mph    
Visibility 10 miles    
Events      
Averages and records for this station are not official NWS values.
T = Trace of Precipitation, MM = Missing Value Source: NWS Daily Summary

Daily Weather History Graph

Daily Weather History Graph

Search for Another Location

Airport or City:

Astronomy

Nov. 27, 2012 Rise Set
Actual Time 7:09 AM CST 4:11 PM CST
Civil Twilight 6:35 AM CST 4:44 PM CST
Nautical Twilight 5:58 AM CST 5:21 PM CST
Astronomical Twilight 5:22 AM CST 5:57 PM CST
Moon 3:43 PM CST (11/27) 6:12 AM CST (11/27)
Length of Visible Light 10h 09m
Length of Day
9h 02m
Waxing Gibbous, 99% of the Moon is Illuminated
Nov 27
Waxing Gibbous
Nov 28
Full
Dec 6
Last Quarter
Dec 13
New
Dec 19
First Quarter

Hourly Weather History & Observations

Time (CST) Temp. Windchill Dew Point Humidity Pressure Visibility Wind Dir Wind Speed Gust Speed Precip Events Conditions
12:54 AM 10.9 °F - 7.0 °F 84% 30.32 in 10.0 mi Calm Calm - N/A   Partly Cloudy
1:54 AM 10.0 °F 3.6 °F 5.0 °F 80% 30.32 in 10.0 mi WNW 3.5 mph - N/A   Clear
2:54 AM 10.9 °F 2.9 °F 6.1 °F 81% 30.32 in 10.0 mi West 4.6 mph - N/A   Overcast
3:54 AM 10.9 °F - 5.0 °F 77% 30.29 in 10.0 mi Calm Calm - N/A   Mostly Cloudy
4:54 AM 10.9 °F 4.7 °F 5.0 °F 77% 30.27 in 10.0 mi Variable 3.5 mph - N/A   Scattered Clouds
5:54 AM 12.9 °F - 7.0 °F 77% 30.26 in 10.0 mi Calm Calm - N/A   Overcast
6:54 AM 12.9 °F 6.9 °F 7.0 °F 77% 30.25 in 10.0 mi South 3.5 mph - N/A   Overcast
7:54 AM 12.0 °F 4.1 °F 7.0 °F 80% 30.24 in 10.0 mi SSE 4.6 mph - N/A   Overcast
8:54 AM 14.0 °F 5.1 °F 7.0 °F 74% 30.23 in 10.0 mi SSE 5.8 mph - N/A   Clear
9:54 AM 19.0 °F 12.3 °F 10.0 °F 68% 30.23 in 10.0 mi South 4.6 mph - N/A   Scattered Clouds
10:54 AM 26.1 °F 20.5 °F 12.9 °F 58% 30.20 in 10.0 mi SW 4.6 mph - N/A   Overcast
11:54 AM 30.0 °F 24.1 °F 12.0 °F 47% 30.17 in 10.0 mi SSW 5.8 mph - N/A   Mostly Cloudy
12:54 PM 30.9 °F 22.8 °F 12.0 °F 46% 30.14 in 10.0 mi SSW 9.2 mph - N/A   Mostly Cloudy
1:54 PM 30.9 °F 22.8 °F 12.9 °F 47% 30.11 in 10.0 mi SSW 9.2 mph 19.6 mph N/A   Mostly Cloudy
2:54 PM 30.9 °F 25.2 °F 12.9 °F 47% 30.12 in 10.0 mi SW 5.8 mph - N/A   Overcast
3:54 PM 30.0 °F 22.4 °F 14.0 °F 51% 30.10 in 10.0 mi SW 8.1 mph - N/A   Overcast
4:54 PM 30.0 °F 21.7 °F 16.0 °F 56% 30.09 in 10.0 mi WSW 9.2 mph 18.4 mph N/A   Overcast
5:54 PM 30.0 °F 21.1 °F 16.0 °F 56% 30.09 in 10.0 mi WSW 10.4 mph - N/A   Overcast
6:54 PM 28.9 °F 20.4 °F 17.1 °F 61% 30.11 in 10.0 mi West 9.2 mph - N/A   Overcast
7:54 PM 27.0 °F 18.0 °F 19.0 °F 72% 30.11 in 10.0 mi West 9.2 mph - 0.00 in   Overcast
8:54 PM 26.1 °F 17.6 °F 19.9 °F 78% 30.11 in 10.0 mi West 8.1 mph - N/A   Mostly Cloudy
9:54 PM 25.0 °F 16.3 °F 19.9 °F 81% 30.12 in 9.0 mi WNW 8.1 mph - 0.00 in   Mostly Cloudy
10:54 PM 24.1 °F 15.2 °F 19.0 °F 81% 30.11 in 10.0 mi WNW 8.1 mph - N/A   Mostly Cloudy
11:54 PM 24.1 °F 16.0 °F 19.0 °F 81% 30.12 in 10.0 mi WNW 6.9 mph - N/A   Mostly Cloudy